Wetterdaten: Woche 13.06.16 - 19.06.16 (KW24)
Datum Zeit Temp. I. Temp. A. Feuchte I. Feuchte A. Luftdruck Regen Wind Richtung Sonnenschein UV Solar Taupunkt Windchill Windben
13.06.2016 00:00 24,1 C 14,0 C 57 % 95 % 1004,9 hPa 0,0 l/m 3,7 km/h (1 Bft) W-SW 0,00 h 0,0 UV-I 0 W/m 13,2 C 13,9 C 9,4 km/h (2 Bft)
13.06.2016 01:00 24,0 C 13,7 C 57 % 94 % 1004,8 hPa 0,0 l/m 3,7 km/h (1 Bft) W-SW 0,00 h 0,0 UV-I 0 W/m 12,8 C 13,4 C 10,1 km/h (2 Bft)
13.06.2016 02:00 24,0 C 13,5 C 57 % 94 % 1004,7 hPa 0,0 l/m 4,3 km/h (1 Bft) W-SW 0,00 h 0,0 UV-I 0 W/m 12,5 C 13,2 C 10,9 km/h (2 Bft)
13.06.2016 03:00 24,0 C 13,4 C 57 % 93 % 1004,6 hPa 0,0 l/m 1,1 km/h (1 Bft) W-SW 0,00 h 0,0 UV-I 0 W/m 12,3 C 13,4 C 4,0 km/h (1 Bft)
13.06.2016 04:00 24,0 C 13,4 C 58 % 93 % 1004,4 hPa 0,0 l/m 0,6 km/h (0 Bft) W-SW 0,00 h 0,0 UV-I 0 W/m 12,3 C 13,4 C 2,4 km/h (1 Bft)
13.06.2016 05:00 23,9 C 13,5 C 58 % 94 % 1004,3 hPa 0,0 l/m 0,2 km/h (0 Bft) W-SW 0,00 h 0,0 UV-I 5 W/m 12,5 C 13,5 C 1,4 km/h (1 Bft)
13.06.2016 06:00 23,9 C 13,5 C 58 % 94 % 1004,3 hPa 0,0 l/m 0,8 km/h (0 Bft) SW 0,00 h 0,5 UV-I 49 W/m 12,6 C 13,5 C 3,2 km/h (1 Bft)
13.06.2016 07:00 23,9 C 13,9 C 58 % 92 % 1004,1 hPa 0,0 l/m 1,7 km/h (1 Bft) SW 0,00 h 0,6 UV-I 103 W/m 12,6 C 13,9 C 5,1 km/h (1 Bft)
13.06.2016 08:00 24,0 C 13,8 C 58 % 90 % 1004,0 hPa 0,0 l/m 1,6 km/h (1 Bft) W-SW 0,05 h 0,8 UV-I 118 W/m 12,1 C 13,7 C 4,9 km/h (1 Bft)
13.06.2016 09:00 24,2 C 14,4 C 58 % 86 % 1003,8 hPa 0,0 l/m 2,5 km/h (1 Bft) W 0,40 h 1,0 UV-I 150 W/m 12,1 C 14,3 C 6,2 km/h (2 Bft)
13.06.2016 10:00 24,1 C 15,0 C 57 % 86 % 1003,4 hPa 0,0 l/m 0,6 km/h (0 Bft) S 0,78 h 1,7 UV-I 229 W/m 12,7 C 15,0 C 2,1 km/h (1 Bft)
13.06.2016 11:00 24,0 C 16,3 C 57 % 85 % 1002,7 hPa 0,2 l/m 2,5 km/h (1 Bft) S 1,00 h 3,4 UV-I 473 W/m 13,8 C 16,3 C 6,4 km/h (2 Bft)
13.06.2016 12:00 24,0 C 15,8 C 57 % 89 % 1002,2 hPa 0,2 l/m 5,1 km/h (1 Bft) S 0,85 h 2,5 UV-I 335 W/m 14,0 C 15,2 C 9,9 km/h (2 Bft)
13.06.2016 13:00 24,2 C 15,8 C 57 % 91 % 1001,6 hPa 0,8 l/m 0,7 km/h (0 Bft) W 0,88 h 3,3 UV-I 392 W/m 14,3 C 15,8 C 2,2 km/h (1 Bft)
13.06.2016 14:00 23,7 C 16,6 C 57 % 87 % 1001,2 hPa 0,2 l/m 2,7 km/h (1 Bft) S 0,62 h 2,3 UV-I 304 W/m 14,5 C 16,6 C 5,9 km/h (2 Bft)
13.06.2016 15:00 23,3 C 15,7 C 58 % 91 % 1001,1 hPa 0,6 l/m 0,3 km/h (0 Bft) S 0,25 h 1,1 UV-I 125 W/m 14,2 C 15,7 C 0,9 km/h (0 Bft)
13.06.2016 16:00 23,1 C 16,6 C 59 % 88 % 1000,9 hPa 0,2 l/m 0,8 km/h (0 Bft) S 0,60 h 1,9 UV-I 244 W/m 14,5 C 16,6 C 2,4 km/h (1 Bft)
13.06.2016 17:00 23,6 C 14,0 C 58 % 92 % 1001,3 hPa 6,8 l/m 2,1 km/h (1 Bft) S 0,00 h 0,0 UV-I 12 W/m 12,7 C 13,7 C 4,2 km/h (1 Bft)
13.06.2016 18:00 23,9 C 12,7 C 57 % 95 % 1001,1 hPa 0,6 l/m 0,0 km/h (0 Bft) N 0,00 h 0,5 UV-I 73 W/m 11,9 C 12,7 C 0,1 km/h (0 Bft)
13.06.2016 19:00 24,0 C 13,6 C 57 % 95 % 1000,9 hPa 0,0 l/m 0,2 km/h (0 Bft) S 0,08 h 0,5 UV-I 76 W/m 12,8 C 13,6 C 0,5 km/h (0 Bft)
13.06.2016 20:00 24,1 C 13,7 C 57 % 94 % 1000,8 hPa 0,0 l/m 0,0 km/h (0 Bft) N 0,00 h 0,0 UV-I 23 W/m 12,7 C 13,7 C 0,0 km/h (0 Bft)
13.06.2016 21:00 24,3 C 13,3 C 57 % 93 % 1001,1 hPa 0,0 l/m 0,0 km/h (0 Bft) S 0,00 h 0,0 UV-I 7 W/m 12,3 C 13,3 C 0,1 km/h (0 Bft)
13.06.2016 22:00 24,1 C 12,6 C 57 % 94 % 1001,2 hPa 0,0 l/m 0,0 km/h (0 Bft) N 0,00 h 0,0 UV-I 0 W/m 11,7 C 12,6 C 0,0 km/h (0 Bft)
13.06.2016 23:00 23,9 C 11,9 C 57 % 96 % 1001,2 hPa 0,0 l/m 0,0 km/h (0 Bft) N 0,00 h 0,0 UV-I 0 W/m 11,2 C 11,9 C 0,1 km/h (0 Bft)
14.06.2016 00:00 23,9 C 11,5 C 57 % 97 % 1001,2 hPa 0,2 l/m 0,0 km/h (0 Bft) N 0,00 h 0,0 UV-I 0 W/m 11,1 C 11,5 C 0,0 km/h (0 Bft)
14.06.2016 01:00 23,8 C 12,3 C 57 % 97 % 1001,2 hPa 0,0 l/m 0,0 km/h (0 Bft) SW 0,00 h 0,0 UV-I 0 W/m 11,8 C 12,3 C 0,4 km/h (0 Bft)
14.06.2016 02:00 23,8 C 12,4 C 58 % 97 % 1001,3 hPa 0,0 l/m 0,1 km/h (0 Bft) S 0,00 h 0,0 UV-I 0 W/m 11,9 C 12,4 C 0,6 km/h (0 Bft)
14.06.2016 03:00 23,7 C 12,4 C 58 % 97 % 1001,1 hPa 0,0 l/m 0,3 km/h (0 Bft) SW 0,00 h 0,0 UV-I 0 W/m 11,9 C 12,4 C 1,8 km/h (1 Bft)
14.06.2016 04:00 23,8 C 12,5 C 58 % 96 % 1001,0 hPa 0,0 l/m 0,4 km/h (0 Bft) S 0,00 h 0,0 UV-I 0 W/m 11,8 C 12,5 C 1,9 km/h (1 Bft)
14.06.2016 05:00 23,7 C 12,4 C 58 % 96 % 1001,3 hPa 0,0 l/m 0,7 km/h (0 Bft) SW 0,00 h 0,0 UV-I 8 W/m 11,8 C 12,4 C 3,2 km/h (1 Bft)
14.06.2016 06:00 23,7 C 12,5 C 58 % 95 % 1001,6 hPa 0,0 l/m 0,6 km/h (0 Bft) SW 0,00 h 0,0 UV-I 23 W/m 11,7 C 12,5 C 2,8 km/h (1 Bft)
14.06.2016 07:00 23,7 C 12,9 C 58 % 93 % 1001,7 hPa 0,0 l/m 2,8 km/h (1 Bft) SW 0,27 h 0,7 UV-I 125 W/m 11,8 C 12,8 C 5,9 km/h (2 Bft)
14.06.2016 08:00 23,7 C 13,6 C 58 % 90 % 1001,7 hPa 0,0 l/m 3,8 km/h (1 Bft) W-SW 0,82 h 1,1 UV-I 195 W/m 12,0 C 13,4 C 8,1 km/h (2 Bft)
14.06.2016 09:00 24,0 C 14,1 C 59 % 87 % 1001,8 hPa 0,0 l/m 0,6 km/h (0 Bft) S 0,87 h 1,4 UV-I 223 W/m 12,1 C 14,2 C 1,8 km/h (1 Bft)
14.06.2016 10:00 24,2 C 15,3 C 59 % 83 % 1001,6 hPa 0,0 l/m 3,1 km/h (1 Bft) W-SW 0,85 h 2,2 UV-I 318 W/m 12,4 C 15,2 C 6,0 km/h (2 Bft)
14.06.2016 11:00 24,2 C 16,0 C 59 % 80 % 1001,4 hPa 0,0 l/m 2,8 km/h (1 Bft) SW 0,88 h 2,8 UV-I 375 W/m 12,5 C 15,9 C 6,6 km/h (2 Bft)
14.06.2016 12:00 24,2 C 16,7 C 58 % 78 % 1001,2 hPa 0,0 l/m 5,8 km/h (2 Bft) S 1,00 h 4,2 UV-I 504 W/m 13,0 C 16,4 C 11,3 km/h (2 Bft)
14.06.2016 13:00 24,2 C 16,9 C 58 % 75 % 1001,0 hPa 0,0 l/m 6,2 km/h (2 Bft) S 1,00 h 3,3 UV-I 403 W/m 12,4 C 16,4 C 11,8 km/h (2 Bft)
14.06.2016 14:00 24,2 C 17,8 C 57 % 72 % 1000,5 hPa 0,0 l/m 5,2 km/h (1 Bft) S 1,00 h 4,3 UV-I 530 W/m 12,7 C 17,5 C 10,5 km/h (2 Bft)
14.06.2016 15:00 24,5 C 18,5 C 57 % 68 % 1000,1 hPa 0,0 l/m 5,8 km/h (2 Bft) S 1,00 h 4,3 UV-I 642 W/m 12,5 C 18,1 C 11,5 km/h (2 Bft)
14.06.2016 16:00 24,4 C 18,8 C 54 % 65 % 999,8 hPa 0,0 l/m 4,3 km/h (1 Bft) S 1,00 h 3,0 UV-I 444 W/m 12,2 C 18,7 C 9,3 km/h (2 Bft)
14.06.2016 17:00 24,2 C 18,8 C 53 % 67 % 999,4 hPa 0,0 l/m 2,4 km/h (1 Bft) S 0,78 h 1,6 UV-I 235 W/m 12,5 C 18,8 C 6,3 km/h (2 Bft)
14.06.2016 18:00 23,9 C 18,5 C 53 % 68 % 999,0 hPa 0,0 l/m 2,4 km/h (1 Bft) S 0,13 h 1,0 UV-I 130 W/m 12,5 C 18,5 C 6,4 km/h (2 Bft)
14.06.2016 19:00 24,4 C 17,9 C 55 % 68 % 999,0 hPa 0,0 l/m 2,2 km/h (1 Bft) S 0,00 h 0,6 UV-I 67 W/m 12,0 C 17,9 C 4,9 km/h (1 Bft)
14.06.2016 20:00 24,4 C 15,9 C 54 % 81 % 999,5 hPa 0,0 l/m 3,8 km/h (1 Bft) W-SW 0,00 h 0,0 UV-I 18 W/m 12,6 C 15,6 C 9,1 km/h (2 Bft)
14.06.2016 21:00 24,5 C 14,3 C 55 % 91 % 999,9 hPa 0,0 l/m 0,0 km/h (0 Bft) N 0,00 h 0,0 UV-I 0 W/m 12,9 C 14,3 C 0,0 km/h (0 Bft)
14.06.2016 22:00 24,4 C 14,1 C 55 % 91 % 1000,3 hPa 0,6 l/m 0,1 km/h (0 Bft) S 0,00 h 0,0 UV-I 0 W/m 12,6 C 14,1 C 0,4 km/h (0 Bft)
14.06.2016 23:00 24,2 C 13,5 C 56 % 93 % 1000,6 hPa 0,2 l/m 0,0 km/h (0 Bft) N 0,00 h 0,0 UV-I 0 W/m 12,5 C 13,5 C 0,0 km/h (0 Bft)
15.06.2016 00:00 24,1 C 13,2 C 56 % 95 % 1000,8 hPa 0,4 l/m 0,0 km/h (0 Bft) N 0,00 h 0,0 UV-I 0 W/m 12,4 C 13,2 C 0,2 km/h (0 Bft)
15.06.2016 01:00 24,0 C 12,8 C 57 % 95 % 1000,4 hPa 0,0 l/m 0,0 km/h (0 Bft) N 0,00 h 0,0 UV-I 0 W/m 12,0 C 12,8 C 0,0 km/h (0 Bft)
15.06.2016 02:00 24,0 C 12,3 C 57 % 96 % 1000,1 hPa 0,0 l/m 0,0 km/h (0 Bft) N 0,00 h 0,0 UV-I 0 W/m 11,7 C 12,3 C 0,0 km/h (0 Bft)
15.06.2016 03:00 23,9 C 12,4 C 57 % 96 % 1000,2 hPa 0,0 l/m 0,0 km/h (0 Bft) N 0,00 h 0,0 UV-I 0 W/m 11,7 C 12,4 C 0,2 km/h (0 Bft)
15.06.2016 04:00 24,0 C 12,2 C 57 % 96 % 1000,1 hPa 0,0 l/m 0,0 km/h (0 Bft) N 0,00 h 0,0 UV-I 0 W/m 11,6 C 12,2 C 0,1 km/h (0 Bft)
15.06.2016 05:00 23,9 C 12,4 C 57 % 96 % 1000,0 hPa 0,0 l/m 0,1 km/h (0 Bft) SW 0,00 h 0,0 UV-I 8 W/m 11,8 C 12,4 C 1,2 km/h (1 Bft)
15.06.2016 06:00 23,9 C 12,1 C 58 % 95 % 1000,2 hPa 0,0 l/m 1,0 km/h (0 Bft) W-SW 0,00 h 0,0 UV-I 18 W/m 11,3 C 12,1 C 3,8 km/h (1 Bft)
15.06.2016 07:00 23,8 C 12,1 C 58 % 95 % 1000,6 hPa 0,2 l/m 0,3 km/h (0 Bft) SW 0,00 h 0,5 UV-I 53 W/m 11,3 C 12,1 C 1,3 km/h (1 Bft)
15.06.2016 08:00 23,9 C 12,9 C 58 % 92 % 1000,9 hPa 0,0 l/m 1,3 km/h (1 Bft) SW 0,75 h 1,0 UV-I 186 W/m 11,6 C 12,9 C 3,6 km/h (1 Bft)
15.06.2016 09:00 24,0 C 13,9 C 57 % 87 % 1001,2 hPa 0,0 l/m 2,3 km/h (1 Bft) W 1,00 h 1,8 UV-I 299 W/m 11,8 C 13,9 C 5,0 km/h (1 Bft)
15.06.2016 10:00 24,0 C 14,6 C 56 % 82 % 1001,2 hPa 0,0 l/m 1,5 km/h (1 Bft) W-SW 0,92 h 2,1 UV-I 287 W/m 11,7 C 14,6 C 3,9 km/h (1 Bft)
15.06.2016 11:00 24,2 C 15,7 C 56 % 78 % 1001,3 hPa 0,0 l/m 3,4 km/h (1 Bft) S 1,00 h 3,3 UV-I 414 W/m 11,8 C 15,6 C 7,1 km/h (2 Bft)
15.06.2016 12:00 24,0 C 17,1 C 53 % 68 % 1001,1 hPa 0,0 l/m 3,3 km/h (1 Bft) W 1,00 h 3,8 UV-I 503 W/m 11,2 C 17,1 C 7,2 km/h (2 Bft)
15.06.2016 13:00 23,9 C 17,0 C 52 % 68 % 1000,9 hPa 0,0 l/m 2,6 km/h (1 Bft) S 1,00 h 2,5 UV-I 296 W/m 11,1 C 17,0 C 6,2 km/h (2 Bft)
15.06.2016 14:00 24,0 C 17,3 C 50 % 69 % 1000,9 hPa 1,8 l/m 3,8 km/h (1 Bft) S 0,80 h 2,6 UV-I 292 W/m 11,5 C 17,2 C 8,1 km/h (2 Bft)
15.06.2016 15:00 24,2 C 15,5 C 52 % 82 % 1001,2 hPa 1,2 l/m 2,8 km/h (1 Bft) SW 0,32 h 1,4 UV-I 96 W/m 12,5 C 15,1 C 6,2 km/h (2 Bft)
15.06.2016 16:00 23,8 C 13,5 C 53 % 91 % 1001,4 hPa 1,2 l/m 1,4 km/h (1 Bft) W-SW 0,65 h 2,3 UV-I 315 W/m 12,1 C 13,5 C 3,6 km/h (1 Bft)
15.06.2016 17:00 24,1 C 16,0 C 53 % 81 % 1001,7 hPa 0,0 l/m 4,2 km/h (1 Bft) SW 0,77 h 2,1 UV-I 380 W/m 12,8 C 15,8 C 8,9 km/h (2 Bft)
15.06.2016 18:00 23,7 C 15,6 C 53 % 80 % 1001,7 hPa 0,0 l/m 3,0 km/h (1 Bft) S 0,00 h 0,8 UV-I 89 W/m 12,0 C 15,4 C 6,3 km/h (2 Bft)
15.06.2016 19:00 24,2 C 15,5 C 54 % 80 % 1002,0 hPa 0,0 l/m 1,5 km/h (1 Bft) S 0,00 h 0,0 UV-I 30 W/m 12,0 C 15,5 C 3,9 km/h (1 Bft)
15.06.2016 20:00 24,3 C 14,8 C 54 % 83 % 1002,5 hPa 0,0 l/m 0,3 km/h (0 Bft) S 0,00 h 0,0 UV-I 19 W/m 11,9 C 14,8 C 1,1 km/h (1 Bft)
15.06.2016 21:00 24,6 C 13,6 C 55 % 88 % 1002,9 hPa 0,0 l/m 0,0 km/h (0 Bft) S 0,00 h 0,0 UV-I 7 W/m 11,7 C 13,6 C 0,1 km/h (0 Bft)
15.06.2016 22:00 24,4 C 12,8 C 55 % 91 % 1003,5 hPa 0,0 l/m 0,0 km/h (0 Bft) N 0,00 h 0,0 UV-I 0 W/m 11,4 C 12,8 C 0,0 km/h (0 Bft)
15.06.2016 23:00 24,2 C 11,6 C 56 % 94 % 1004,1 hPa 0,0 l/m 0,0 km/h (0 Bft) N 0,00 h 0,0 UV-I 0 W/m 10,6 C 11,6 C 0,0 km/h (0 Bft)
16.06.2016 00:00 24,1 C 10,5 C 56 % 95 % 1004,2 hPa 0,0 l/m 0,0 km/h (0 Bft) N 0,00 h 0,0 UV-I 0 W/m 9,7 C 10,5 C 0,0 km/h (0 Bft)
16.06.2016 01:00 24,0 C 9,8 C 56 % 96 % 1004,2 hPa 0,0 l/m 0,0 km/h (0 Bft) N 0,00 h 0,0 UV-I 0 W/m 9,2 C 9,8 C 0,0 km/h (0 Bft)
16.06.2016 02:00 23,9 C 9,4 C 56 % 96 % 1004,0 hPa 0,0 l/m 0,0 km/h (0 Bft) N 0,00 h 0,0 UV-I 0 W/m 8,7 C 9,4 C 0,0 km/h (0 Bft)
16.06.2016 03:00 23,9 C 9,0 C 57 % 96 % 1003,9 hPa 0,0 l/m 0,0 km/h (0 Bft) N 0,00 h 0,0 UV-I 0 W/m 8,4 C 9,0 C 0,0 km/h (0 Bft)
16.06.2016 04:00 23,9 C 8,6 C 57 % 96 % 1004,0 hPa 0,0 l/m 0,0 km/h (0 Bft) N 0,00 h 0,0 UV-I 0 W/m 8,0 C 8,6 C 0,0 km/h (0 Bft)
16.06.2016 05:00 23,7 C 8,3 C 56 % 97 % 1004,0 hPa 0,0 l/m 0,0 km/h (0 Bft) N 0,00 h 0,0 UV-I 12 W/m 7,8 C 8,3 C 0,0 km/h (0 Bft)
16.06.2016 06:00 23,8 C 9,1 C 56 % 97 % 1003,9 hPa 0,0 l/m 0,0 km/h (0 Bft) N 0,00 h 0,5 UV-I 48 W/m 8,6 C 9,1 C 0,0 km/h (0 Bft)
16.06.2016 07:00 23,8 C 10,9 C 56 % 97 % 1003,7 hPa 0,0 l/m 0,0 km/h (0 Bft) N 0,00 h 0,6 UV-I 93 W/m 10,4 C 10,9 C 0,0 km/h (0 Bft)
16.06.2016 08:00 23,8 C 12,6 C 57 % 96 % 1003,4 hPa 0,0 l/m 0,4 km/h (0 Bft) N-NW 0,47 h 0,9 UV-I 157 W/m 11,9 C 12,6 C 0,8 km/h (0 Bft)
16.06.2016 09:00 24,0 C 15,1 C 57 % 87 % 1003,2 hPa 0,0 l/m 0,7 km/h (0 Bft) N-NO 1,00 h 1,5 UV-I 227 W/m 13,1 C 15,1 C 1,1 km/h (1 Bft)
16.06.2016 10:00 23,9 C 16,0 C 56 % 84 % 1003,2 hPa 0,0 l/m 2,5 km/h (1 Bft) N 1,00 h 1,7 UV-I 226 W/m 13,2 C 16,0 C 5,2 km/h (1 Bft)
16.06.2016 11:00 23,9 C 15,7 C 56 % 85 % 1003,2 hPa 0,0 l/m 0,7 km/h (0 Bft) O-NO 0,78 h 1,3 UV-I 162 W/m 13,2 C 15,7 C 1,9 km/h (1 Bft)
16.06.2016 12:00 24,0 C 16,5 C 57 % 86 % 1003,2 hPa 0,2 l/m 2,9 km/h (1 Bft) N 0,78 h 2,0 UV-I 249 W/m 14,1 C 16,4 C 5,3 km/h (1 Bft)
16.06.2016 13:00 24,1 C 17,4 C 56 % 81 % 1003,0 hPa 0,0 l/m 6,1 km/h (2 Bft) N 1,00 h 2,9 UV-I 334 W/m 14,1 C 16,9 C 10,8 km/h (2 Bft)
16.06.2016 14:00 24,1 C 18,1 C 56 % 76 % 1002,5 hPa 0,0 l/m 7,5 km/h (2 Bft) N 1,00 h 2,3 UV-I 271 W/m 13,9 C 17,5 C 12,0 km/h (2 Bft)
16.06.2016 15:00 24,1 C 18,1 C 56 % 78 % 1002,6 hPa 0,0 l/m 6,6 km/h (2 Bft) N 0,87 h 1,6 UV-I 194 W/m 14,1 C 17,6 C 11,1 km/h (2 Bft)
16.06.2016 16:00 24,1 C 18,1 C 56 % 77 % 1002,9 hPa 0,0 l/m 5,6 km/h (1 Bft) NW 0,63 h 1,2 UV-I 155 W/m 14,0 C 17,8 C 10,0 km/h (2 Bft)
16.06.2016 17:00 24,2 C 17,8 C 56 % 79 % 1002,7 hPa 0,0 l/m 5,0 km/h (1 Bft) NW 0,57 h 1,4 UV-I 151 W/m 14,1 C 17,4 C 9,6 km/h (2 Bft)
16.06.2016 18:00 24,2 C 16,7 C 57 % 83 % 1002,2 hPa 0,0 l/m 1,4 km/h (1 Bft) N 0,00 h 0,5 UV-I 66 W/m 13,8 C 16,7 C 4,3 km/h (1 Bft)
16.06.2016 19:00 24,4 C 16,2 C 58 % 86 % 1001,9 hPa 0,2 l/m 0,4 km/h (0 Bft) N 0,00 h 0,0 UV-I 24 W/m 13,8 C 16,2 C 1,4 km/h (1 Bft)
16.06.2016 20:00 24,6 C 15,2 C 58 % 93 % 1001,9 hPa 0,4 l/m 0,4 km/h (0 Bft) S-SO 0,00 h 0,0 UV-I 5 W/m 14,0 C 15,2 C 1,1 km/h (1 Bft)
16.06.2016 21:00 24,7 C 14,6 C 59 % 95 % 1001,8 hPa 0,0 l/m 1,7 km/h (1 Bft) W-NW 0,00 h 0,0 UV-I 0 W/m 13,9 C 14,6 C 4,3 km/h (1 Bft)
16.06.2016 22:00 24,6 C 14,2 C 58 % 96 % 1002,1 hPa 0,8 l/m 0,9 km/h (0 Bft) N 0,00 h 0,0 UV-I 0 W/m 13,6 C 14,2 C 2,5 km/h (1 Bft)
16.06.2016 23:00 24,3 C 13,9 C 59 % 96 % 1002,1 hPa 0,6 l/m 0,2 km/h (0 Bft) S 0,00 h 0,0 UV-I 0 W/m 13,4 C 13,9 C 0,9 km/h (0 Bft)
17.06.2016 00:00 24,1 C 13,9 C 59 % 97 % 1001,2 hPa 0,4 l/m 0,1 km/h (0 Bft) W-SW 0,00 h 0,0 UV-I 0 W/m 13,4 C 13,9 C 0,5 km/h (0 Bft)
17.06.2016 01:00 24,1 C 13,7 C 59 % 97 % 1000,5 hPa 0,2 l/m 0,5 km/h (0 Bft) W-SW 0,00 h 0,0 UV-I 0 W/m 13,2 C 13,7 C 1,6 km/h (1 Bft)
17.06.2016 02:00 24,0 C 13,5 C 59 % 97 % 1000,2 hPa 1,6 l/m 0,2 km/h (0 Bft) W-SW 0,00 h 0,0 UV-I 0 W/m 13,0 C 13,5 C 1,0 km/h (0 Bft)
17.06.2016 03:00 24,0 C 13,1 C 59 % 97 % 1000,3 hPa 1,4 l/m 1,6 km/h (1 Bft) W-NW 0,00 h 0,0 UV-I 0 W/m 12,6 C 13,1 C 4,1 km/h (1 Bft)
17.06.2016 04:00 23,9 C 12,5 C 59 % 97 % 1000,4 hPa 0,6 l/m 0,8 km/h (0 Bft) W 0,00 h 0,0 UV-I 0 W/m 12,1 C 12,5 C 3,4 km/h (1 Bft)
17.06.2016 05:00 23,9 C 12,1 C 59 % 97 % 1000,9 hPa 0,8 l/m 3,9 km/h (1 Bft) W-SW 0,00 h 0,0 UV-I 6 W/m 11,6 C 11,8 C 8,8 km/h (2 Bft)
17.06.2016 06:00 23,9 C 11,7 C 60 % 96 % 1001,7 hPa 1,4 l/m 3,4 km/h (1 Bft) W-SW 0,00 h 0,0 UV-I 23 W/m 11,1 C 11,6 C 9,5 km/h (2 Bft)
17.06.2016 07:00 23,9 C 11,8 C 60 % 96 % 1002,1 hPa 0,0 l/m 1,9 km/h (1 Bft) W-SW 0,00 h 0,5 UV-I 44 W/m 11,2 C 11,8 C 6,0 km/h (2 Bft)
17.06.2016 08:00 24,1 C 12,1 C 60 % 96 % 1002,3 hPa 0,8 l/m 3,5 km/h (1 Bft) SW 0,03 h 0,7 UV-I 83 W/m 11,5 C 11,9 C 9,3 km/h (2 Bft)
17.06.2016 09:00 24,3 C 12,2 C 60 % 96 % 1003,2 hPa 1,4 l/m 6,0 km/h (2 Bft) W-SW 0,00 h 0,7 UV-I 80 W/m 11,5 C 11,4 C 13,3 km/h (3 Bft)
17.06.2016 10:00 24,3 C 12,0 C 60 % 96 % 1004,6 hPa 1,4 l/m 4,3 km/h (1 Bft) W-SW 0,00 h 0,5 UV-I 57 W/m 11,3 C 11,5 C 10,7 km/h (2 Bft)
17.06.2016 11:00 24,3 C 12,1 C 59 % 95 % 1006,0 hPa 0,4 l/m 3,8 km/h (1 Bft) SW 0,00 h 0,9 UV-I 101 W/m 11,4 C 11,9 C 9,7 km/h (2 Bft)
17.06.2016 12:00 24,6 C 12,4 C 59 % 95 % 1007,0 hPa 0,4 l/m 3,0 km/h (1 Bft) SW 0,00 h 1,0 UV-I 110 W/m 11,6 C 12,3 C 8,4 km/h (2 Bft)
17.06.2016 13:00 24,6 C 13,1 C 58 % 95 % 1007,7 hPa 0,6 l/m 3,5 km/h (1 Bft) SW 0,48 h 1,6 UV-I 186 W/m 12,3 C 13,0 C 8,2 km/h (2 Bft)
17.06.2016 14:00 24,2 C 12,6 C 57 % 93 % 1008,4 hPa 1,6 l/m 3,7 km/h (1 Bft) W 0,23 h 2,2 UV-I 206 W/m 11,5 C 12,4 C 9,1 km/h (2 Bft)
17.06.2016 15:00 24,5 C 14,6 C 56 % 90 % 1008,8 hPa 0,0 l/m 3,9 km/h (1 Bft) W-SW 0,85 h 2,6 UV-I 361 W/m 13,0 C 14,4 C 9,0 km/h (2 Bft)
17.06.2016 16:00 24,5 C 15,5 C 56 % 87 % 1009,5 hPa 0,4 l/m 6,2 km/h (2 Bft) SW 0,68 h 2,7 UV-I 341 W/m 13,3 C 14,8 C 12,7 km/h (3 Bft)
17.06.2016 17:00 24,4 C 13,1 C 57 % 92 % 1010,7 hPa 0,2 l/m 2,7 km/h (1 Bft) SW 0,43 h 1,2 UV-I 192 W/m 11,8 C 12,9 C 7,2 km/h (2 Bft)
17.06.2016 18:00 24,4 C 14,5 C 58 % 89 % 1010,7 hPa 0,0 l/m 4,2 km/h (1 Bft) SW 0,18 h 0,9 UV-I 98 W/m 12,6 C 14,3 C 9,8 km/h (2 Bft)
17.06.2016 19:00 24,6 C 14,9 C 59 % 85 % 1011,0 hPa 0,0 l/m 1,5 km/h (1 Bft) W-SW 0,00 h 0,6 UV-I 46 W/m 12,4 C 14,8 C 5,4 km/h (1 Bft)
17.06.2016 20:00 24,5 C 13,9 C 58 % 86 % 1011,6 hPa 0,0 l/m 1,1 km/h (0 Bft) S-SW 0,00 h 0,0 UV-I 18 W/m 11,6 C 13,9 C 3,7 km/h (1 Bft)
17.06.2016 21:00 24,6 C 13,0 C 58 % 90 % 1012,7 hPa 0,0 l/m 0,2 km/h (0 Bft) S-SW 0,00 h 0,0 UV-I 6 W/m 11,5 C 13,0 C 1,7 km/h (1 Bft)
17.06.2016 22:00 24,4 C 12,2 C 57 % 92 % 1013,3 hPa 0,0 l/m 1,8 km/h (1 Bft) S 0,00 h 0,0 UV-I 0 W/m 11,0 C 12,2 C 5,8 km/h (2 Bft)
17.06.2016 23:00 24,1 C 11,9 C 57 % 93 % 1013,9 hPa 0,0 l/m 1,4 km/h (1 Bft) SW 0,00 h 0,0 UV-I 0 W/m 10,7 C 11,9 C 4,5 km/h (1 Bft)
18.06.2016 00:00 24,1 C 11,3 C 58 % 94 % 1014,3 hPa 0,0 l/m 0,0 km/h (0 Bft) N 0,00 h 0,0 UV-I 0 W/m 10,3 C 11,3 C 0,2 km/h (0 Bft)
18.06.2016 01:00 24,0 C 10,9 C 58 % 94 % 1014,9 hPa 0,0 l/m 0,1 km/h (0 Bft) SW 0,00 h 0,0 UV-I 0 W/m 10,0 C 10,9 C 1,7 km/h (1 Bft)
18.06.2016 02:00 23,9 C 10,5 C 58 % 95 % 1015,2 hPa 0,0 l/m 0,4 km/h (0 Bft) S-SW 0,00 h 0,0 UV-I 0 W/m 9,7 C 10,5 C 2,4 km/h (1 Bft)
18.06.2016 03:00 23,9 C 9,9 C 59 % 95 % 1015,5 hPa 0,0 l/m 0,0 km/h (0 Bft) N 0,00 h 0,0 UV-I 0 W/m 9,2 C 9,9 C 0,0 km/h (0 Bft)
18.06.2016 04:00 23,9 C 9,1 C 59 % 96 % 1015,3 hPa 0,0 l/m 0,0 km/h (0 Bft) N 0,00 h 0,0 UV-I 0 W/m 8,5 C 9,1 C 0,0 km/h (0 Bft)
18.06.2016 05:00 23,8 C 8,4 C 59 % 97 % 1015,6 hPa 0,0 l/m 0,0 km/h (0 Bft) N 0,00 h 0,0 UV-I 15 W/m 7,9 C 8,4 C 0,0 km/h (0 Bft)
18.06.2016 06:00 23,8 C 9,7 C 59 % 98 % 1015,9 hPa 0,4 l/m 0,0 km/h (0 Bft) N 0,00 h 0,0 UV-I 57 W/m 9,3 C 9,7 C 0,0 km/h (0 Bft)
18.06.2016 07:00 23,8 C 11,7 C 59 % 96 % 1016,1 hPa 0,2 l/m 0,5 km/h (0 Bft) S 0,58 h 0,8 UV-I 230 W/m 11,1 C 11,7 C 1,0 km/h (0 Bft)
18.06.2016 08:00 23,9 C 14,6 C 58 % 86 % 1016,3 hPa 0,0 l/m 5,0 km/h (1 Bft) S 1,00 h 1,7 UV-I 463 W/m 12,3 C 14,2 C 9,7 km/h (2 Bft)
18.06.2016 09:00 23,9 C 15,7 C 56 % 81 % 1016,6 hPa 0,0 l/m 4,8 km/h (1 Bft) S 1,00 h 2,9 UV-I 631 W/m 12,4 C 15,4 C 9,6 km/h (2 Bft)
18.06.2016 10:00 24,0 C 17,4 C 55 % 76 % 1016,8 hPa 0,0 l/m 5,2 km/h (1 Bft) W-SW 1,00 h 4,1 UV-I 700 W/m 13,2 C 17,2 C 9,7 km/h (2 Bft)
18.06.2016 11:00 24,1 C 18,1 C 55 % 71 % 1016,9 hPa 0,0 l/m 7,9 km/h (2 Bft) S 1,00 h 4,9 UV-I 739 W/m 12,7 C 17,2 C 14,8 km/h (3 Bft)
18.06.2016 12:00 24,3 C 19,2 C 56 % 65 % 1016,5 hPa 0,0 l/m 5,5 km/h (1 Bft) W-SW 1,00 h 5,0 UV-I 671 W/m 12,4 C 18,9 C 11,1 km/h (2 Bft)
18.06.2016 13:00 24,5 C 19,5 C 57 % 59 % 1016,2 hPa 0,0 l/m 6,7 km/h (2 Bft) W-SW 0,95 h 4,2 UV-I 435 W/m 11,3 C 18,9 C 13,4 km/h (3 Bft)
18.06.2016 14:00 24,6 C 19,5 C 55 % 64 % 1015,7 hPa 0,0 l/m 7,6 km/h (2 Bft) S 0,77 h 4,2 UV-I 389 W/m 12,5 C 18,7 C 14,1 km/h (3 Bft)
18.06.2016 15:00 24,4 C 19,4 C 54 % 63 % 1015,5 hPa 0,0 l/m 3,4 km/h (1 Bft) S 0,87 h 2,3 UV-I 238 W/m 12,1 C 19,3 C 8,0 km/h (2 Bft)
18.06.2016 16:00 24,3 C 18,6 C 52 % 63 % 1015,9 hPa 0,0 l/m 6,2 km/h (2 Bft) W-NW 0,48 h 1,5 UV-I 137 W/m 11,4 C 17,9 C 12,6 km/h (3 Bft)
18.06.2016 17:00 24,6 C 15,3 C 54 % 84 % 1016,4 hPa 0,4 l/m 1,8 km/h (1 Bft) NW 0,68 h 1,0 UV-I 164 W/m 12,5 C 15,3 C 3,4 km/h (1 Bft)
18.06.2016 18:00 24,8 C 15,4 C 55 % 85 % 1016,4 hPa 0,0 l/m 0,2 km/h (0 Bft) S-SO 0,25 h 0,9 UV-I 101 W/m 12,8 C 15,4 C 0,7 km/h (0 Bft)
18.06.2016 19:00 24,9 C 16,7 C 55 % 78 % 1016,4 hPa 0,0 l/m 1,1 km/h (1 Bft) SW 0,00 h 0,6 UV-I 94 W/m 12,9 C 16,7 C 3,3 km/h (1 Bft)
18.06.2016 20:00 24,7 C 16,4 C 55 % 78 % 1016,8 hPa 0,0 l/m 0,4 km/h (0 Bft) SW 0,00 h 0,0 UV-I 23 W/m 12,6 C 16,4 C 1,3 km/h (1 Bft)
18.06.2016 21:00 24,7 C 15,0 C 56 % 83 % 1017,4 hPa 0,0 l/m 0,1 km/h (0 Bft) SW 0,00 h 0,0 UV-I 7 W/m 12,2 C 15,0 C 0,7 km/h (0 Bft)
18.06.2016 22:00 24,7 C 14,1 C 56 % 86 % 1017,6 hPa 0,0 l/m 0,0 km/h (0 Bft) N 0,00 h 0,0 UV-I 0 W/m 11,9 C 14,1 C 0,0 km/h (0 Bft)
18.06.2016 23:00 24,5 C 13,3 C 56 % 91 % 1017,7 hPa 0,0 l/m 0,0 km/h (0 Bft) N 0,00 h 0,0 UV-I 0 W/m 11,9 C 13,3 C 0,0 km/h (0 Bft)
19.06.2016 00:00 24,3 C 12,1 C 57 % 94 % 1017,9 hPa 0,0 l/m 0,0 km/h (0 Bft) N 0,00 h 0,0 UV-I 0 W/m 11,2 C 12,1 C 0,0 km/h (0 Bft)
19.06.2016 01:00 24,2 C 11,5 C 58 % 95 % 1018,3 hPa 0,0 l/m 0,0 km/h (0 Bft) N 0,00 h 0,0 UV-I 0 W/m 10,7 C 11,5 C 0,0 km/h (0 Bft)
19.06.2016 02:00 24,1 C 11,0 C 58 % 95 % 1018,4 hPa 0,0 l/m 0,0 km/h (0 Bft) N 0,00 h 0,0 UV-I 0 W/m 10,2 C 11,0 C 0,1 km/h (0 Bft)
19.06.2016 03:00 24,1 C 10,1 C 58 % 95 % 1018,6 hPa 0,0 l/m 0,0 km/h (0 Bft) N 0,00 h 0,0 UV-I 0 W/m 9,3 C 10,1 C 0,0 km/h (0 Bft)
19.06.2016 04:00 24,1 C 9,3 C 58 % 96 % 1018,6 hPa 0,0 l/m 0,0 km/h (0 Bft) N 0,00 h 0,0 UV-I 0 W/m 8,7 C 9,3 C 0,0 km/h (0 Bft)
19.06.2016 05:00 23,9 C 9,0 C 58 % 97 % 1019,1 hPa 0,0 l/m 0,0 km/h (0 Bft) N 0,00 h 0,0 UV-I 17 W/m 8,5 C 9,0 C 0,0 km/h (0 Bft)
19.06.2016 06:00 23,9 C 10,0 C 58 % 97 % 1019,8 hPa 0,0 l/m 0,0 km/h (0 Bft) N 0,00 h 0,5 UV-I 51 W/m 9,5 C 10,0 C 0,1 km/h (0 Bft)
19.06.2016 07:00 23,9 C 11,2 C 58 % 96 % 1020,0 hPa 0,0 l/m 0,6 km/h (0 Bft) W 0,00 h 0,6 UV-I 78 W/m 10,7 C 11,2 C 1,9 km/h (1 Bft)
19.06.2016 08:00 23,9 C 11,8 C 59 % 96 % 1020,3 hPa 0,0 l/m 0,2 km/h (0 Bft) W 0,35 h 1,3 UV-I 165 W/m 11,2 C 11,8 C 0,6 km/h (0 Bft)
19.06.2016 09:00 24,1 C 14,2 C 59 % 89 % 1020,5 hPa 0,0 l/m 0,8 km/h (0 Bft) SO 0,98 h 2,6 UV-I 483 W/m 12,5 C 14,2 C 1,8 km/h (1 Bft)
19.06.2016 10:00 24,3 C 16,4 C 57 % 80 % 1020,6 hPa 0,0 l/m 0,4 km/h (0 Bft) SO 1,00 h 3,4 UV-I 534 W/m 13,0 C 16,4 C 1,1 km/h (0 Bft)
19.06.2016 11:00 23,8 C 17,4 C 54 % 73 % 1020,7 hPa 0,0 l/m 2,4 km/h (1 Bft) W 1,00 h 3,3 UV-I 484 W/m 12,4 C 17,3 C 5,0 km/h (1 Bft)
19.06.2016 12:00 24,0 C 17,7 C 56 % 71 % 1020,8 hPa 0,0 l/m 1,8 km/h (1 Bft) W-SW 1,00 h 4,6 UV-I 595 W/m 12,4 C 17,7 C 4,3 km/h (1 Bft)
19.06.2016 13:00 24,2 C 18,8 C 55 % 67 % 1020,6 hPa 0,0 l/m 4,1 km/h (1 Bft) W 1,00 h 4,4 UV-I 621 W/m 12,4 C 18,6 C 8,5 km/h (2 Bft)
19.06.2016 14:00 23,6 C 18,2 C 50 % 65 % 1020,6 hPa 0,0 l/m 3,7 km/h (1 Bft) NW 1,00 h 2,5 UV-I 296 W/m 11,5 C 18,0 C 6,9 km/h (2 Bft)
19.06.2016 15:00 23,6 C 18,5 C 52 % 66 % 1020,7 hPa 0,0 l/m 2,9 km/h (1 Bft) N-NW 1,00 h 2,4 UV-I 302 W/m 11,9 C 18,4 C 6,2 km/h (2 Bft)
19.06.2016 16:00 24,1 C 18,2 C 53 % 65 % 1020,7 hPa 0,0 l/m 3,9 km/h (1 Bft) W-NW 1,00 h 2,1 UV-I 300 W/m 11,6 C 18,1 C 8,3 km/h (2 Bft)
19.06.2016 17:00 24,3 C 17,9 C 54 % 65 % 1020,7 hPa 0,0 l/m 2,8 km/h (1 Bft) NW 0,80 h 1,2 UV-I 167 W/m 11,2 C 17,9 C 6,2 km/h (2 Bft)
19.06.2016 18:00 24,5 C 17,7 C 54 % 69 % 1020,6 hPa 0,0 l/m 3,5 km/h (1 Bft) NW 0,12 h 0,7 UV-I 127 W/m 11,9 C 17,7 C 7,4 km/h (2 Bft)
19.06.2016 19:00 24,5 C 16,8 C 54 % 74 % 1020,9 hPa 0,0 l/m 1,2 km/h (1 Bft) N 0,00 h 0,0 UV-I 45 W/m 12,2 C 16,8 C 3,4 km/h (1 Bft)
19.06.2016 20:00 24,3 C 15,8 C 55 % 80 % 1021,0 hPa 0,0 l/m 2,5 km/h (1 Bft) N 0,00 h 0,0 UV-I 24 W/m 12,3 C 15,8 C 5,5 km/h (1 Bft)
19.06.2016 21:00 24,4 C 15,0 C 55 % 82 % 1021,5 hPa 0,0 l/m 0,6 km/h (0 Bft) N 0,00 h 0,0 UV-I 9 W/m 12,0 C 15,0 C 2,3 km/h (1 Bft)
19.06.2016 22:00 24,4 C 14,4 C 55 % 84 % 1022,1 hPa 0,0 l/m 0,5 km/h (0 Bft) N 0,00 h 0,0 UV-I 0 W/m 11,7 C 14,4 C 2,2 km/h (1 Bft)
19.06.2016 23:00 24,1 C 13,4 C 56 % 87 % 1022,4 hPa 0,0 l/m 0,2 km/h (0 Bft) N-NW 0,00 h 0,0 UV-I 0 W/m 11,3 C 13,4 C 1,1 km/h (1 Bft)
Min-Datum _ 13.06.16 16.06.16 15.06.16 18.06.16 14.06.16 - 13.06.16 - - - - 16.06.16 17.06.16 13.06.16
_ Min-Zeit 16:03 04:54 14:18 13:34 18:46 - 00:02 - - - - 04:54 09:53 00:02
Minimum _ 23,0 C 8,1 C 49 % 55 % 998,8 hPa - 0,0 km/h (0 Bft) - - - - 7,5 C 7,1 C 0,0 km/h (0 Bft)
Max-Datum _ 18.06.16 18.06.16 17.06.16 18.06.16 19.06.16 13.06.16 18.06.16 - 13.06.16 15.06.16 13.06.16 13.06.16 18.06.16 15.06.16
_ Max-Zeit 19:20 12:57 09:17 06:07 23:58 17:05 16:47 - 13:33 14:01 11:56 16:09 12:59 15:43
Maximum _ 25,0 C 20,3 C 61 % 98 % 1022,6 hPa 6,8 l/m 22,5 km/h
W-NW (4 Bft)
- 0,03 h 7,9 UV-I 1218 W/m 15,9 C 20,3 C 33,8 km/h
SW (5 Bft)
Durchschnitt _ 24,1 C 14,2 C 57 % 87 % 1007,2 hPa #32,2 l/m 1,9 km/h (1 Bft) W-SW #53:09 h 1,9 UV-I 205 W/m 11,9 C 14,1 C 4,3 km/h (1 Bft)